Location: Azalea Creek
(37.1280°N, 119.2623°W)
Time: 09:39:39
(UTC+00:00)

Cosmos 1238 Rocket - Pass Details

Date: 17 February 2020
Orbit: 373 x 1032 km, 83.0° (Epoch: 09 April)

Event Time Altitude Azimuth Distance (km) Brightness Sun altitude
Rises 02:21:46 0° 177° (S) 3,295 6.9 -9.4°
Reaches altitude 10° 02:24:00 10° 175° (S) 2,456 6.2 -9.9°
Maximum altitude 02:29:39 69° 93° (E) 1,001 3.9 -11.0°
Drops below altitude 10° 02:36:07 10° 11° (NNE) 2,795 6.2 -12.3°
Sets 02:38:47 0° 10° (N) 3,781 6.9 -12.8°
